Lander, WY

6:05 AM MST on November 19, 2017 (GMT -0700)
Hunt

Weather History for KLND - April, 2013

Change the Weather History Date:

Wednesday, April 10, 2013

  Actual Average Record
Temperature  
Mean Temperature 17 °F 42 °F  
Max Temperature 28 °F 55 °F 73 °F (1985)
Min Temperature 5 °F 30 °F 5 °F (2013)
Degree Days  
Heating Degree Days 48 23  
Month to date heating degree days 256 239  
Since 1 July heating degree days 6516 6858  
Cooling Degree Days 0 0  
Month to date cooling degree days 0 0  
Year to date cooling degree days 0 0  
Moisture  
Dew Point 11 °F    
Average Humidity 80    
Maximum Humidity 92    
Minimum Humidity 68    
Precipitation  
Precipitation T in 0.06 in 1.42 in (1943)
Month to date precipitation 1.78 0.53  
Year to date precipitation 4.18 2.68  
Snow  
Snow T in 0.60 in - ()
Month to date snowfall 20.6 5.9  
Since 1 July snowfall 77.9 75.6  
Snow Depth 13.00 in    
Sea Level Pressure  
Sea Level Pressure 30.18 in    
Wind  
Wind Speed 3 mph (ESE)    
Max Wind Speed 10 mph    
Max Gust Speed 12 mph    
Visibility 7 miles    
Events Fog , Snow    
T = Trace of Precipitation, MM = Missing Value Source: NWS Daily Summary

Daily Weather History Graph

Daily Weather History Graph

Search for Another Location

Airport or City:

Trip Planner

Search our weather history database for the weather conditions in past years. The results will help you decide how hot, cold, wet, or windy it might be!

Date:

Astronomy

Apr. 10, 2013 Rise Set
Actual Time 6:41 AM MDT 7:51 PM MDT
Civil Twilight 6:12 AM MDT 8:20 PM MDT
Nautical Twilight 5:37 AM MDT 8:55 PM MDT
Astronomical Twilight 5:00 AM MDT 9:32 PM MDT
Moon 6:38 AM MDT (4/10) 8:32 PM MDT (4/10)
Length of Visible Light 14h 08m
Length of Day
13h 10m
New Moon, 0% of the Moon is Illuminated
Apr 10
New Moon
Apr 18
First Quarter
Apr 25
Full
May 2
Last Quarter
May 9
New

Hourly Weather History & Observations

Time (MDT) Temp. Windchill Dew Point Humidity Pressure Visibility Wind Dir Wind Speed Gust Speed Precip Events Conditions
12:53 AM 14.0 °F - 10.9 °F 88% 30.35 in 5.0 mi Calm Calm - 0.00 in Snow Light Snow
1:53 AM 12.0 °F 4.1 °F 9.0 °F 88% 30.33 in 7.0 mi SE 4.6 mph - 0.00 in   Overcast
2:53 AM 12.0 °F - 10.0 °F 92% 30.32 in 10.0 mi Calm Calm - N/A   Overcast
3:53 AM 10.0 °F 0.4 °F 7.0 °F 87% 30.31 in 10.0 mi ESE 5.8 mph - N/A   Scattered Clouds
4:53 AM 10.0 °F -0.9 °F 8.1 °F 92% 30.32 in 8.0 mi WNW 6.9 mph - N/A   Overcast
5:53 AM 9.0 °F 2.4 °F 6.1 °F 88% 30.31 in 10.0 mi West 3.5 mph - N/A   Overcast
6:53 AM 6.1 °F - 3.0 °F 87% 30.31 in 8.0 mi Calm Calm - N/A   Mostly Cloudy
7:10 AM 8.6 °F - 6.8 °F 92% 30.10 in 2.5 mi Calm Calm - N/A   Overcast
7:17 AM 8.6 °F - 6.8 °F 92% 30.10 in 4.0 mi Calm Calm - N/A   Mostly Cloudy
7:53 AM 9.0 °F - 7.0 °F 92% 30.33 in 9.0 mi Calm Calm - N/A   Scattered Clouds
8:53 AM 6.1 °F - 3.9 °F 91% 30.35 in 4.0 mi Calm Calm - N/A   Scattered Clouds
9:01 AM 5.0 °F - 3.2 °F 92% 30.11 in 1.8 mi Calm Calm - N/A   Mostly Cloudy
9:08 AM 6.8 °F - 6.8 °F 100% 30.11 in 0.2 mi Calm Calm - N/A Fog Light Freezing Fog
9:53 AM 10.0 °F 3.6 °F 8.1 °F 92% 30.34 in 0.8 mi SE 3.5 mph - N/A   Mist
10:02 AM 10.4 °F - 8.6 °F 92% 30.11 in 2.0 mi Calm Calm - N/A   Mostly Cloudy
10:15 AM 10.4 °F 4.0 °F 8.6 °F 92% 30.11 in 3.0 mi East 3.5 mph - N/A   Scattered Clouds
10:25 AM 10.4 °F 4.0 °F 8.6 °F 92% 30.12 in 3.0 mi ESE 3.5 mph - N/A   Mostly Cloudy
10:36 AM 10.4 °F - 8.6 °F 92% 30.11 in 2.0 mi Calm Calm - N/A   Mostly Cloudy
10:43 AM 10.4 °F 4.0 °F 8.6 °F 92% 30.11 in 1.8 mi SE 3.5 mph - N/A   Overcast
10:53 AM 12.0 °F 5.9 °F 9.0 °F 88% 30.32 in 1.5 mi SSE 3.5 mph - N/A   Overcast
11:04 AM 12.2 °F - 10.4 °F 92% 30.11 in 3.0 mi Calm Calm - N/A   Mostly Cloudy
11:17 AM 12.2 °F 6.1 °F 10.4 °F 92% 30.10 in 6.0 mi ESE 3.5 mph - N/A   Scattered Clouds
11:53 AM 16.0 °F 8.8 °F 12.9 °F 88% 30.30 in 7.0 mi ESE 4.6 mph - N/A   Scattered Clouds
12:02 PM 15.8 °F - 12.2 °F 86% 30.10 in 6.0 mi Calm Calm - N/A   Mostly Cloudy
12:18 PM 15.8 °F - 12.2 °F 86% 30.09 in 9.0 mi Calm Calm - N/A   Mostly Cloudy
12:31 PM 17.6 °F - 12.2 °F 79% 30.09 in 10.0 mi Calm Calm - N/A   Partly Cloudy
12:53 PM 18.0 °F - 12.9 °F 81% 30.26 in 10.0 mi Calm Calm - N/A   Clear
1:53 PM 19.0 °F 13.9 °F 14.0 °F 81% 30.22 in 10.0 mi SE 3.5 mph - N/A   Clear
2:53 PM 21.0 °F - 15.1 °F 78% 30.18 in 10.0 mi Calm Calm - N/A   Clear
3:53 PM 23.0 °F 18.4 °F 16.0 °F 74% 30.14 in 10.0 mi ENE 3.5 mph - N/A   Clear
4:53 PM 25.0 °F 20.7 °F 17.1 °F 72% 30.09 in 10.0 mi North 3.5 mph - N/A   Overcast
5:53 PM 26.1 °F 19.4 °F 18.0 °F 71% 30.08 in 10.0 mi NNW 5.8 mph - N/A   Clear
6:53 PM 24.1 °F 17.0 °F 17.1 °F 75% 30.10 in 10.0 mi NW 5.8 mph - N/A   Clear
7:53 PM 23.0 °F 18.4 °F 16.0 °F 74% 30.07 in 10.0 mi West 3.5 mph - N/A   Clear
8:53 PM 23.0 °F - 16.0 °F 74% 30.08 in 10.0 mi Calm Calm - N/A   Clear
9:53 PM 19.9 °F 14.9 °F 16.0 °F 85% 30.07 in 8.0 mi ESE 3.5 mph - N/A   Clear
10:53 PM 21.0 °F 16.2 °F 17.1 °F 85% 30.04 in 9.0 mi WNW 3.5 mph - N/A   Scattered Clouds
11:53 PM 24.1 °F 19.7 °F 18.0 °F 77% 30.00 in 9.0 mi West 3.5 mph - N/A   Overcast